Location: ?????????
(41.1143°N, 22.7905°E)
Time: 16:48:53
(UTC+00:00)

YAOGAN 1 - Pass Details

Date: 13 December 2025
Orbit: 605 x 607 km, 97.8° (Epoch: 16 January)

Event Time Altitude Azimuth Distance (km) Brightness Sun altitude
Rises 15:43:02 0° 121° (ESE) 2,856 5.6 -7.9°
Reaches altitude 10° 15:46:03 10° 98° (E) 1,957 4.6 -8.5°
Maximum altitude 15:48:23 15° 64° (ENE) 1,676 4.1 -8.9°
Drops below altitude 10° 15:50:43 10° 31° (NNE) 1,965 4.7 -9.3°
Sets 15:53:45 0° 7° (N) 2,874 5.7 -9.8°
